Lid_Strength_Index
1 -0 -2 -1 -1 -1 -2 -2 -2 -2 -2 -2 -2 -2 -2 -2 -2 -2 -2 -2 -2 -2 -2 -2 -2 -2 -2 -2 -2 -2 -2 -2 -2 -2 -2 -2 -2 -2 -2 -2 -2 -1 -3
-0 -1 -2 -2 -1 -1 -2 -2 -2 -2 -2 -2 -2 -2 -2 -2 -2 -2 -2 -2 -2 -2 -2 -2 -2 -2 -2 -2 -2 -2 -2 -2 -2 -2 -2 -3 -3 -3 -2 -3 -3 -1 -2
-0 -1 -1 -2 -2 -1 -2 -2 -2 -2 -2 -2 -2 -2 -2 -2 -2 -2 -2 -2 -2 -2 -2 -1 -1 -2 -2 -2 -3 -3 -3 -3 -3 -2 -2 -1 -1 -3 -3 -3 -3 -2 -2
-0 -1 -1 -1 -2 -2 -2 -2 -2 -2 -2 -1 -1 -1 -2 -2 -2 -2 -2 -3 -2 -2 -2 -2 -2 -2 -2 -2 -3 -3 -2 -2 -2 -2 -0 -1 -1 -2 -3 -2 -2 -2 -2
-0 -1 -1 -1 -2 -2 -2 -2 -2 -2 -2 -2 -2 -1 -2 -2 -2 -2 -2 -2 -2 -2 -2 -2 -2 -2 -2 -2 -2 -2 -2 -2 -2 -1 -1 -1 -1 -2 -3 -3 -2 -2 -2
-0 -0 -1 -1 -2 -2 -2 -2 -2 -2 -2 -2 -2 -2 -2 -2 -2 -2 -2 -2 -2 -2 -2 -2 -2 -2 -2 -2 -2 -2 -2 -1 -0 0 -1 -1 -1 -3 -3 -3 -3 -2 -2
0 -0 -1 -1 -1 -2 -2 -2 -2 -2 -2 -2 -2 -2 -2 -2 -2 -2 -2 -2 -2 -2 -2 -2 -2 -2 -2 -2 -3 -2 -2 -1 1 2 1 0 -1 -3 -3 -3 -2 -2 -2
0 -0 -1 0 -0 -1 -1 -2 -2 -2 -2 -2 -2 -2 -2 -2 -2 -2 -2 -2 -2 -2 -2 -2 -2 -2 -2 -2 -2 -2 -3 -2 -0 1 1 0 -2 -3 -3 -2 -1 -1 -1
-0 -0 -0 -0 -0 0 -0 -1 -1 -2 -2 -2 -2 -3 -3 -3 -3 -2 -3 -2 -2 -2 -2 -2 -2 -2 -2 -2 -2 -2 -2 -1 1 1 -1 -1 -2 -3 -2 -1 -1 -1 -0
1 0 -0 0 -0 -0 -0 1 0 -1 -1 -2 -2 -2 -2 -2 -2 -2 -2 -2 -2 -2 -2 -2 -2 -2 -2 -2 -1 -1 -1 -1 1 -0 -1 -1 -2 -2 -1 -1 -0 -0 0
1 0 0 0 0 -0 -0 1 1 0 -0 -0 -1 -0 0 -0 -0 -0 -1 -2 -2 -2 -2 -2 -2 -1 -1 -1 -1 -0 1 2 1 -0 -0 -2 -2 -1 -1 -0 -0 0 0
2 1 0 0 0 0 -1 0 0 -0 -0 -0 -0 0 0 1 1 0 0 -1 -1 -1 -2 -2 -1 -0 1 3 2 1 3 4 3 2 -0 -2 -1 -1 -0 -0 0 0 1
2 1 0 0 0 0 -0 -0 -0 -0 -0 0 0 1 1 1 1 2 2 2 2 1 1 0 2 3 3 3 3 2 3 4 4 3 1 -1 -1 -0 -0 0 0 1 1
2 2 1 0 0 -0 -0 -0 -0 -0 -0 0 0 0 1 2 2 3 3 4 4 4 4 4 4 4 4 5 4 4 4 4 5 5 3 0 -0 0 0 0 1 1 1
3 2 2 1 0 -0 0 -0 -0 -0 -0 -0 -0 -0 0 1 3 3 3 3 4 4 4 5 5 5 6 6 6 6 6 5 6 6 5 2 1 0 1 1 1 1 2
3 3 2 2 1 0 0 0 0 -0 -0 -0 -0 0 -0 0 2 3 3 3 3 2 3 4 5 6 8 8 8 8 8 7 7 8 8 7 2 1 1 1 2 2 2
3 2 2 2 2 1 1 1 0 0 0 0 0 0 0 0 2 3 2 2 2 3 4 6 7 8 9 10 11 10 9 9 9 9 9 9 9 4 2 2 2 3 3
3 3 2 1 2 2 1 1 1 1 0 0 0 0 0 0 1 2 3 3 2 4 6 7 8 9 10 11 13 13 13 12 11 11 11 10 10 10 6 4 4 3 3
3 2 2 2 2 2 3 3 2 2 2 1 0 0 0 1 1 2 3 3 4 6 7 8 8 10 11 12 13 14 15 15 14 14 13 12 11 11 11 7 6 5 5
3 2 2 2 2 2 3 3 3 3 2 1 1 1 1 1 1 2 3 4 5 7 8 8 9 10 11 12 13 14 15 15 15 15 15 14 13 13 13 12 12 10 6
3 3 2 3 3 2 3 4 4 3 3 3 3 1 1 1 1 2 3 4 5 7 8 8 9 11 12 12 14 14 15 15 16 16 16 16 16 15 15 15 14 14 12
3 3 2 2 3 2 2 2 2 4 5 4 5 4 0 1 1 1 2 4 5 7 8 9 9 11 12 12 13 14 17 17 17 16 17 16 17 16 16 16 16 15 15
5 3 2 2 3 3 3 5 6 6 7 6 6 6 4 2 1 1 3 4 5 5 8 8 9 11 12 12 13 13 17 17 18 17 17 17 18 18 18 17 16 15 15
6 4 2 2 3 3 4 5 4 4 4 4 3 4 6 5 2 2 3 4 4 5 6 8 9 10 11 13 13 12 13 15 17 19 17 18 18 18 19 18 18 17 16
7 7 5 5 4 4 4 4 4 4 4 8 7 7 7 7 5 4 3 4 4 4 5 7 9 8 10 11 11 12 13 15 16 18 19 19 19 18 18 18 18 18 17
8 8 7 6 6 6 4 5 5 4 7 7 7 6 6 7 6 5 5 4 4 4 5 6 8 9 10 10 10 11 11 14 15 17 19 19 19 19 19 19 18 18 18